Find Starlink 11204

NORAD ID: 60931 Int'l Des: 2024-155 Owner: SPXS Country: US Constellation: starlink operational
LEOCIRCULAR

Live-Position

3D-Globus wird geladen...

Über Starlink 11204

Beschreibung wird geladen...

Nächste Überflüge

Passes for default location (London). Set your location on the main map for personalized predictions.

Höhenverlauf

Loading altitude history...

Zweizeiliger Elementsatz

1 60931U 24155H 26127.76985218 .00024574 00000-0 20668-3 0 9997
2 60931 53.1585 49.8581 0000150 340.2126 19.8886 15.69757584 97684
Epoch: 7. Mai 2026 • Age: 8 hours

Aktueller Status

Höhe 364.2 km
Geschwindigkeit 7.70 km/s
Subsatellitenpunkt 45.17°N, 164.85°W
Startdatum 31. Aug. 2024
Alter 1.6 years
Typ internet

Technische Details

Klassifizierung Payload
Masse 960.00 kg
Trockenmasse 910.00 kg
Gesamtmasse 960.00 kg
Länge 0.30 m
Durchmesser 4.10 m
Spannweite 29.00 m
Form Box + pan
Hersteller SPXS
Bus-Typ Starlink V2MD
Phasenstatus In Orbit
Besitzer/Staat SPXS/US

Most Searched